Погода в Бёблингене

Германия     48°41′25″N   9°01′10″E
В апреле 2022 года жителям России запретили посещать сайт meteo.paraplan.net по решению Генеральной прокуратуры. Аудитория сайта уменьшилась в 10 раз. Владельцы сайта не видят смысла в поддержке погодного сервера в таких условиях. Сайт будет закрыт в октябре.
темп.,
°C
ветер,
м/с
пор.,
м/с
влажн.,
%
обл.,
%
осадки,
мм/ч
давл.,
гПа
погр.,
м
3 октября, пн
пн323:00+11з119734 3.6 102426
02:00+9зсз119712 3.6 102511
05:00+9сз119886 0.0 102619
08:00+10ссз118987 0.0 102752
11:00+11сз118195 0.0 1028600
14:00+13св017063 0.0 1027874
17:00+14св116317 0.0 1025854
20:00+10в2282100 0.0 102614
4 октября, вт
вт423:00+9юв118686 0.0 102615
02:00+7ю11925 0.0 102514
05:00+6ю2294100 0.0 102421
08:00+7ю2289100 0.0 102438
11:00+12ююв2368100 0.0 1023283
14:00+16ююв2255100 0.0 1022509
17:00+16ю23615 0.0 1021390
20:00+11юз11808 0.0 102210
5 октября, ср
ср523:00+10ююз2285100 0.0 102316
02:00+9ююз2386100 0.0 102347
05:00+9ююз2282100 0.0 102221
08:00+8ююз248197 0.0 102164
11:00+16ююз356196 0.0 1020289
14:00+22юз254616 0.0 10191163
17:00+21зюз235840 0.0 1019171
20:00+15юз357798 0.0 102275
6 октября, чт
чт623:00+13юз378461 0.0 1024112
02:00+13юз398276 0.0 1026148
05:00+13зсз3684100 0.0 1027141
08:00+10з249467 0.0 103085
11:00+14ссз337149 0.0 1031800
14:00+17с225923 0.0 10311081
17:00+16ссв225818 0.0 1030889
20:00+12ссв127172 0.0 103014
7 октября, пт
пт723:00+10св11805 0.0 103012
02:00+9ю118839 0.0 102911
05:00+9ю2293100 0.0 102819
08:00+9ю229325 0.0 102729
11:00+15ю23722 0.0 1026383
14:00+19юз126215 0.0 1023948
17:00+18с226814 0.0 1022408
20:00+12ссз118910 0.0 102311